Volver al catálogo

DELTA 1 DEB

ActivoLEO
NORAD 7170·DEBRIS·🇺🇸 United States

Lanzado Nov 6, 1973 desde Vandenberg Space Force Base

Loading…

Próximos Pases (próximas 24 horas)

TLE

ActualizadoSource: Space-Track

Época: Sep 13, 2026, 16:27 UTC

1 07170U 73086EJ  26256.68581964  .00000794  00000-0  24841-2 0  9998
2 07170 101.6512 316.9029 0088787 310.6601 168.5141 13.07244835475726

Sigue DELTA 1 DEB en tiempo real con AllMySat

Download on the App Store